TimeEDT,TemperatureF,Dew PointF,Humidity,Sea Level PressureIn,VisibilityMPH,Wind Direction,Wind SpeedMPH,Gust SpeedMPH,PrecipitationIn,Events,Conditions,WindDirDegrees,DateUTC
12:15 AM,48.0,48.0,100,29.69,10.0,Calm,Calm,-,N/A,,Clear,0,2012-10-20 04:15:00
12:35 AM,48.6,48.6,100,29.69,10.0,Calm,Calm,-,N/A,,Clear,0,2012-10-20 04:35:00
12:55 AM,46.8,46.8,100,29.69,7.0,Calm,Calm,-,N/A,,Clear,0,2012-10-20 04:55:00
1:15 AM,46.9,46.9,100,29.69,7.0,Calm,Calm,-,N/A,,Clear,0,2012-10-20 05:15:00
1:35 AM,45.5,45.5,100,29.69,1.5,Calm,Calm,-,N/A,,Mist,0,2012-10-20 05:35:00
1:55 AM,46.4,46.4,100,29.69,1.5,Calm,Calm,-,N/A,,Mist,0,2012-10-20 05:55:00
2:15 AM,46.2,46.2,100,29.69,5.0,Calm,Calm,-,N/A,,Clear,0,2012-10-20 06:15:00
2:35 AM,44.6,44.6,100,29.69,2.5,WSW,3.5,-,N/A,,Clear,240,2012-10-20 06:35:00
2:55 AM,46.2,46.2,100,29.68,10.0,Calm,Calm,-,N/A,,Clear,0,2012-10-20 06:55:00
3:15 AM,46.4,46.4,100,29.70,10.0,Calm,Calm,-,N/A,,Clear,0,2012-10-20 07:15:00
3:35 AM,46.8,46.8,100,29.70,10.0,Calm,Calm,-,N/A,,Clear,0,2012-10-20 07:35:00
3:55 AM,45.3,45.3,100,29.71,10.0,Calm,Calm,-,N/A,,Clear,0,2012-10-20 07:55:00
4:15 AM,45.1,45.1,100,29.71,10.0,Calm,Calm,-,N/A,,Clear,0,2012-10-20 08:15:00
4:35 AM,45.0,45.0,100,29.71,10.0,Calm,Calm,-,N/A,,Clear,0,2012-10-20 08:35:00
4:55 AM,45.7,45.7,100,29.72,10.0,Calm,Calm,-,N/A,,Clear,0,2012-10-20 08:55:00
5:15 AM,44.8,44.8,100,29.73,7.0,SE,4.6,-,N/A,,Clear,130,2012-10-20 09:15:00
5:35 AM,43.9,43.9,100,29.74,10.0,Calm,Calm,-,N/A,,Clear,0,2012-10-20 09:35:00
5:55 AM,42.6,42.6,100,29.74,2.5,Calm,Calm,-,N/A,,Mist,0,2012-10-20 09:55:00
6:15 AM,42.8,42.8,100,29.74,4.0,Calm,Calm,-,N/A,,Clear,0,2012-10-20 10:15:00
6:35 AM,42.6,42.6,100,29.74,1.5,Calm,Calm,-,N/A,,Mist,0,2012-10-20 10:35:00
6:55 AM,42.8,42.8,100,29.75,2.5,Calm,Calm,-,N/A,,Mist,0,2012-10-20 10:55:00
7:15 AM,41.9,41.9,100,29.76,1.2,Calm,Calm,-,N/A,,Mist,0,2012-10-20 11:15:00
7:35 AM,43.0,43.0,100,29.77,3.0,Calm,Calm,-,N/A,,Mist,0,2012-10-20 11:35:00
7:55 AM,43.7,43.7,100,29.78,10.0,Calm,Calm,-,N/A,,Clear,0,2012-10-20 11:55:00
8:15 AM,46.4,46.4,100,29.78,10.0,Calm,Calm,-,N/A,,Mostly Cloudy,0,2012-10-20 12:15:00
8:35 AM,49.3,49.3,100,29.79,10.0,Calm,Calm,-,N/A,,Overcast,0,2012-10-20 12:35:00
8:55 AM,51.6,51.6,100,29.79,10.0,Calm,Calm,-,N/A,,Overcast,0,2012-10-20 12:55:00
9:15 AM,51.8,51.8,100,29.79,10.0,Calm,Calm,-,N/A,,Overcast,0,2012-10-20 13:15:00
9:35 AM,53.4,52.9,98,29.79,10.0,Calm,Calm,-,N/A,,Overcast,0,2012-10-20 13:35:00
9:55 AM,54.7,53.6,96,29.79,10.0,Calm,Calm,-,N/A,,Overcast,0,2012-10-20 13:55:00
10:15 AM,57.6,54.5,90,29.80,10.0,SW,3.5,-,N/A,,Overcast,220,2012-10-20 14:15:00
10:35 AM,59.7,54.7,83,29.80,10.0,SW,4.6,-,N/A,,Overcast,220,2012-10-20 14:35:00
10:55 AM,60.4,53.6,78,29.80,10.0,WSW,4.6,-,N/A,,Overcast,240,2012-10-20 14:55:00
11:15 AM,61.7,53.6,75,29.80,10.0,Calm,Calm,-,N/A,,Mostly Cloudy,0,2012-10-20 15:15:00
11:35 AM,64.2,52.7,66,29.80,10.0,WNW,3.5,-,N/A,,Clear,290,2012-10-20 15:35:00
11:55 AM,64.8,53.1,66,29.79,10.0,WNW,3.5,-,N/A,,Clear,300,2012-10-20 15:55:00
12:15 PM,66.6,52.2,60,29.79,10.0,WNW,5.8,-,N/A,,Clear,290,2012-10-20 16:15:00
12:35 PM,66.2,51.4,59,29.78,10.0,WSW,3.5,-,N/A,,Clear,250,2012-10-20 16:35:00
12:55 PM,68.7,51.6,54,29.77,10.0,West,4.6,-,N/A,,Mostly Cloudy,270,2012-10-20 16:55:00
1:15 PM,66.2,50.2,56,29.77,10.0,NW,4.6,-,N/A,,Mostly Cloudy,310,2012-10-20 17:15:00
1:35 PM,67.3,51.8,58,29.77,10.0,WNW,5.8,-,N/A,,Mostly Cloudy,300,2012-10-20 17:35:00
1:55 PM,67.6,51.3,56,29.77,10.0,NW,5.8,-,N/A,,Mostly Cloudy,310,2012-10-20 17:55:00
2:15 PM,66.6,51.1,57,29.77,10.0,NNW,3.5,-,N/A,,Scattered Clouds,340,2012-10-20 18:15:00
2:35 PM,68.5,51.1,54,29.77,10.0,WNW,3.5,-,N/A,,Mostly Cloudy,290,2012-10-20 18:35:00
3:15 PM,69.8,50.7,51,29.77,10.0,SSW,6.9,-,N/A,,Mostly Cloudy,200,2012-10-20 19:15:00
3:35 PM,70.0,49.3,48,29.77,10.0,Calm,Calm,-,N/A,,Mostly Cloudy,0,2012-10-20 19:35:00
3:55 PM,68.9,50.9,53,29.77,10.0,North,5.8,-,N/A,,Overcast,360,2012-10-20 19:55:00
4:15 PM,66.4,50.7,57,29.78,10.0,NNE,4.6,-,N/A,,Overcast,20,2012-10-20 20:15:00
4:35 PM,66.4,52.3,61,29.79,10.0,Calm,Calm,-,N/A,,Overcast,0,2012-10-20 20:35:00
4:55 PM,66.0,51.6,60,29.80,10.0,NNW,4.6,-,N/A,,Overcast,340,2012-10-20 20:55:00
5:15 PM,65.3,48.9,55,29.80,10.0,North,5.8,-,N/A,,Overcast,350,2012-10-20 21:15:00
5:35 PM,64.2,47.7,55,29.81,10.0,North,8.1,-,N/A,,Overcast,350,2012-10-20 21:35:00
5:55 PM,63.1,47.7,57,29.82,10.0,North,5.8,-,N/A,,Overcast,350,2012-10-20 21:55:00
6:15 PM,61.9,48.4,61,29.83,10.0,North,5.8,-,N/A,,Overcast,360,2012-10-20 22:15:00
6:35 PM,59.5,47.7,65,29.84,10.0,North,4.6,-,N/A,,Scattered Clouds,350,2012-10-20 22:35:00
6:55 PM,55.6,48.0,76,29.85,10.0,Calm,Calm,-,N/A,,Scattered Clouds,0,2012-10-20 22:55:00
7:15 PM,54.3,49.1,83,29.85,10.0,Calm,Calm,-,N/A,,Mostly Cloudy,0,2012-10-20 23:15:00
7:35 PM,54.3,49.5,84,29.86,10.0,Calm,Calm,-,N/A,,Overcast,0,2012-10-20 23:35:00
7:55 PM,52.9,48.0,84,29.87,10.0,Calm,Calm,-,N/A,,Mostly Cloudy,0,2012-10-20 23:55:00
8:15 PM,50.4,47.8,91,29.87,10.0,Calm,Calm,-,N/A,,Scattered Clouds,0,2012-10-21 00:15:00
8:35 PM,48.9,47.3,94,29.88,10.0,Calm,Calm,-,N/A,,Scattered Clouds,0,2012-10-21 00:35:00
8:55 PM,47.5,46.9,98,29.88,10.0,Calm,Calm,-,N/A,,Mostly Cloudy,0,2012-10-21 00:55:00
9:15 PM,47.1,46.6,98,29.89,10.0,Calm,Calm,-,N/A,,Scattered Clouds,0,2012-10-21 01:15:00
9:35 PM,45.3,45.3,100,29.90,10.0,Calm,Calm,-,N/A,,Scattered Clouds,0,2012-10-21 01:35:00
9:55 PM,45.7,45.7,100,29.91,10.0,Calm,Calm,-,N/A,,Clear,0,2012-10-21 01:55:00
10:15 PM,43.7,43.7,100,29.92,10.0,Calm,Calm,-,N/A,,Clear,0,2012-10-21 02:15:00
10:35 PM,43.7,43.7,100,29.92,10.0,Calm,Calm,-,N/A,,Clear,0,2012-10-21 02:35:00
10:55 PM,43.2,43.2,100,29.93,10.0,Calm,Calm,-,N/A,,Clear,0,2012-10-21 02:55:00
11:15 PM,43.3,43.3,100,29.93,10.0,Calm,Calm,-,N/A,,Clear,0,2012-10-21 03:15:00
11:35 PM,45.0,45.0,100,29.93,10.0,Calm,Calm,-,N/A,,Clear,0,2012-10-21 03:35:00
11:55 PM,44.2,44.2,100,29.93,10.0,Calm,Calm,-,N/A,,Clear,0,2012-10-21 03:55:00